Location: Newark
(51.2625°N, 13.3939°E)
Time: 01:09:31
(UTC+00:00)

Transit 2A Rocket - Pass Details

Date: 23 January 2021
Orbit: 594 x 909 km, 66.7° (Epoch: 03 March)

Event Time Altitude Azimuth Distance (km) Brightness Sun altitude
Rises 18:35:59 0° 323° (NW) 2,990 8.6 -27.0°
Reaches altitude 10° 18:38:32 10° 333° (NNW) 2,033 7.5 -27.4°
Enters shadow 18:40:19 20° 348° (NNW) 1,438 6.5 -27.6°
